All
Golden Grove Airport (Golden Grove, Western Australia) YGGE Weather
|
Golden Grove, Western Australia (YGGE)
Clear skies
Light winds |
|
53 °F |
YGGE Terminal Area Forecast
| Date | Time (AWST) | Flight Rules | Wind Dir. | Speed | Type | Height AGL (ft) | Visibility | Remarks | ||||||
|---|---|---|---|---|---|---|---|---|---|---|---|---|---|---|
Recent YGGE METAR history
| Date | Time (AWST) | Flight Rules | Wind Dir. | Speed | Type | Height AGL (ft) | Visibility | Temp (°C) | Temp (°F) | Dew Point (°C) | Dew Point (°F) | Rel. Humid. | Pressure | Density Altitude | Remarks |
|---|---|---|---|---|---|---|---|---|---|---|---|---|---|---|---|
| 09-May | 10:00PM | VFR | 90° | 6 kt | 10000 meters | 12° | 53° | -1° | 30° | 40% | 1025 mb | 714 ft | |||
| 09-May | 09:00PM | VFR | 80° | 5 kt | 10000 meters | 14° | 57° | -1° | 30° | 36% | 1025 mb | 954 ft | |||
| 09-May | 08:00PM | VFR | 90° | 4 kt | 10000 meters | 12° | 53° | -1° | 30° | 40% | 1025 mb | 714 ft | |||
| 09-May | 07:00PM | VFR | 90° | 5 kt | 10000 meters | 15° | 59° | -1° | 30° | 33% | 1024 mb | 1,104 ft | |||
| 09-May | 06:00PM | VFR | 90° | 6 kt | 10000 meters | 19° | 66° | -1° | 30° | 26% | 1024 mb | 1,584 ft | |||
| 09-May | 05:00PM | VFR | 70° | 11 kt | 10000 meters | 21° | 69° | -2° | 28° | 21% | 1023 mb | 1,853 ft | |||
| 09-May | 04:00PM | VFR | 70° | 11 kt | 10000 meters | 22° | 71° | -2° | 28° | 20% | 1023 mb | 1,973 ft | |||
| 09-May | 03:00PM | VFR | 50° | 11 kt | 10000 meters | 22° | 71° | -2° | 28° | 20% | 1023 mb | 1,973 ft | |||
| 09-May | 02:00PM | VFR | 60° | 9 kt | 10000 meters | 22° | 71° | -1° | 30° | 21% | 1023 mb | 1,973 ft | |||
| 09-May | 01:00PM | VFR | 70° | 9 kt | 10000 meters | 21° | 69° | 1° | 33° | 26% | 1024 mb | 1,824 ft | |||
| 09-May | 12:00PM | VFR | 40° | 10 kt | 10000 meters | 20° | 68° | 1° | 33° | 28% | 1025 mb | 1,674 ft | |||
| 09-May | 11:00AM | VFR | 40° | 12 kt | 10000 meters | 19° | 66° | 2° | 35° | 32% | 1026 mb | 1,525 ft | |||
| 09-May | 10:00AM | VFR | 40° | 15 kt | 10000 meters | 17° | 62° | 2° | 35° | 36% | 1027 mb | 1,255 ft | |||
| 09-May | 09:00AM | VFR | 40° | 14 kt | 10000 meters | 16° | 60° | 3° | 37° | 42% | 1027 mb | 1,135 ft | |||
| 09-May | 08:00AM | VFR | 70° | 10 kt | 10000 meters | 13° | 55° | 3° | 37° | 51% | 1027 mb | 775 ft | |||
| 09-May | 07:00AM | VFR | 100° | 6 kt | 10000 meters | 9° | 48° | 2° | 35° | 61% | 1027 mb | 295 ft | |||
| 09-May | 06:00AM | VFR | 110° | 7 kt | 10000 meters | 10° | 50° | 2° | 35° | 57% | 1026 mb | 445 ft | |||
| 09-May | 05:00AM | VFR | 70° | 7 kt | 10000 meters | 11° | 51° | 2° | 35° | 54% | 1026 mb | 565 ft | |||
| 09-May | 04:00AM | VFR | 80° | 9 kt | 10000 meters | 11° | 51° | 2° | 35° | 54% | 1026 mb | 565 ft | |||
| 09-May | 03:00AM | VFR | 90° | 8 kt | 10000 meters | 11° | 51° | 2° | 35° | 54% | 1026 mb | 565 ft | |||
| 09-May | 02:00AM | VFR | 90° | 9 kt | 10000 meters | 13° | 55° | 2° | 35° | 47% | 1025 mb | 834 ft | |||
| 09-May | 01:00AM | VFR | 80° | 10 kt | 10000 meters | 15° | 59° | 2° | 35° | 41% | 1025 mb | 1,074 ft | |||
| 09-May | 12:00AM | VFR | 70° | 11 kt | 10000 meters | 15° | 59° | 2° | 35° | 41% | 1026 mb | 1,045 ft | |||
| 08-May | 11:00PM | VFR | 80° | 10 kt | 10000 meters | 16° | 60° | 3° | 37° | 42% | 1026 mb | 1,165 ft |
Login
| Your browser is unsupported. upgrade your browser |
